Back to catalog

SL-8 R/B

AlivePO
NORAD 8421·ROCKET BODY·🇷🇺 Russia

Launched Nov 4, 1975 from Plesetsk Cosmodrome

Loading…

Next Passes (next 24 hours)

TLE

FreshSource: Space-Track

Epoch: Sep 14, 2026, 04:36 UTC

1 08421U 75103B   26257.19197118  .00000079  00000-0  64252-4 0  9999
2 08421  82.9772 180.1354 0023820 141.9482  22.8058 13.77105019553369

Track SL-8 R/B in real time with AllMySat

Download on the App Store